Location: Be?i?
(36.9044°N, 30.1006°E)
Time: 11:18:17
(UTC+00:00)

Atlas Centaur 2 - Pass Details

Date: 05 August 2024
Orbit: 457 x 1272 km, 30.4° (Epoch: 08 September)

Event Time Altitude Azimuth Distance (km) Brightness Sun altitude
Rises 17:50:44 0° 230° (SW) 2,598 5.0 -9.6°
Reaches altitude 10° 17:53:06 10° 215° (SW) 1,798 4.0 -10.0°
Maximum altitude 17:56:27 24° 160° (SSE) 1,261 2.7 -10.6°
Enters shadow 17:59:07 15° 117° (ESE) 1,747 3.2 -11.1°
